Preview of NWS' New Version of Forecast
This preview is not operational and should not be used for support decisions.

Terminal Aerodrome Forecast (TAF)

Issued by National Weather Service (NWS)

                            
000
FTUS42 KKEY 152207 AAC
TAFEYW
TAF AMD
KEYW 152207Z 1522/1618 34012G18KT P6SM BKN028
     FM160300 35010KT P6SM SCT030=